Miscellaneous Local Product
Issued by NWS North Platte, NE

Home | Current Version | Previous Version | Text Only | Print | Product List | Glossary On
Versions: 1 2 3 4 5 6 7 8 9 10 11 12 13 14 15 16 17 18 19 20 21 22 23 24 25 26 27 28 29 30 31 32 33 34 35 36 37 38 39 40 41 42 43 44 45 46 47 48 49 50
000
AXUS43 KLBF 220210
MISLBF


WESTERN AND NORTH CENTRAL NEBRASKA HOURLY WEATHER ROUNDUP
NATIONAL WEATHER SERVICE NORTH PLATTE NE
900 PM CDT THU AUG 21 2014

***STATIONS NOT REPORTING VARIABLES SUCH AS SKY/WEATHER OR
PRESSURE ARE PROVIDED BY THE NEBRASKA DEPARTMENT OF
ROADS...RAWS...AND APRS NETWORKS...AND ARE NOT UNDER
NATIONAL WEATHER SERVICE QUALITY CONTROL***

...OBSERVATIONS IN AND NEAR THE EASTERN PANHANDLE OF NEBRASKA...

CITY           SKY/WX    TMP DP  RH WIND       PRES   REMARKS
PINE RIDGE     PTCLDY    74  58  57 E9        29.95R
CHADRON        CLEAR     77  54  44 SE10      29.93R
ALLIANCE       PTCLDY    76  50  40 S7        29.99R
SIDNEY         PTCLDY    75  51  43 NE5       30.05R
WHITECLAY        N/A     75  56  51 E5          N/A
RUSHVILLE        N/A     78  53  41 E13         N/A
GORDON           N/A     81  55  39 E9          N/A
CRESCENT LAKE    N/A     78  52  40 E5          N/A
LISCO            N/A     82  47  29 CALM        N/A
BIG SPRINGS      N/A     84  67  55 CALM        N/A
$$

...OBSERVATIONS IN NORTH CENTRAL NEBRASKA...

CITY           SKY/WX    TMP DP  RH WIND       PRES   REMARKS
VALENTINE      PTCLDY    80  58  46 N6        29.94R
THEDFORD       PTCLDY    75  63  65 NE3       29.96R
AINSWORTH      PTCLDY    73  65  74 NE5       29.94R
O`NEILL        CLEAR     77  66  68 NE3       29.91R
ORD            CLEAR     78  69  73 N5        29.90R
BROKEN BOW     PTCLDY    74  69  85 CALM      29.93R
BROWNLEE         N/A     85  56  36 NE5         N/A
SPRINGVIEW       N/A     78  63  60 CALM        N/A
ROSE             N/A     80  68  67 NE6         N/A
NEWPORT          N/A     77  67  70 N5          N/A
SARGENT          N/A     80  66  61 CALM        N/A
COMSTOCK         N/A     84  75  75 CALM        N/A  HX  91
CHAMBERS         N/A     77  64  63 CALM        N/A
EWING            N/A     78  72  83 CALM        N/A
$$

...OBSERVATIONS IN SOUTHWEST NEBRASKA AND FAR NORTHEAST COLORADO...

CITY           SKY/WX    TMP DP  RH WIND       PRES   REMARKS
WRAY             N/A     78  49  36 NE7       29.98S
IMPERIAL       CLEAR     83  56  39 CALM      29.96R
OGALLALA       PTCLDY    76  60  56 E3        29.97R
NORTH PLATTE   PTCLDY    74  62  66 NE7       29.93R
MCCOOK         CLEAR     81  66  60 E8        29.91R
LEXINGTON      CLEAR     78  72  82 NE6       29.92R
PAXTON           N/A     86  62  44 CALM        N/A
SUTHERLAND       N/A     80  70  71 E5          N/A
BRADY            N/A     76  66  71 CALM        N/A
GOTHENBURG       N/A     84  65  53 N5          N/A
CALLAWAY         N/A     82  72  71 NE3         N/A
$$

...SOME WEATHER OBSERVATIONS FROM AROUND THE REGION...

CITY           SKY/WX    TMP DP  RH WIND       PRES   REMARKS
DENVER         CLOUDY    65  55  70 SE8       30.16S
LARAMIE        CLOUDY    64  40  41 NW6       30.24R
CHEYENNE       MOCLDY    70  44  39 S14G21    30.18R
SCOTTSBLUFF    CLOUDY    80  50  34 W7        30.02R
RAPID CITY     PTCLDY    72  55  55 NE17      29.95R
PIERRE         CLEAR     75  63  66 NE9       29.88R
WINNER         FAIR      78  58  49 N7        29.91R
SIOUX FALLS    PTCLDY    76  69  79 N6        29.87R
OMAHA          PTCLDY    84  74  71 SE5       29.85R HX  91
GRAND ISLAND   PTCLDY    79  73  82 E5        29.88R
KANSAS CITY    PTCLDY    85  72  65 S9        29.87R HX  91
WICHITA        PTCLDY    89  68  49 S15       29.88R HX  93
HAYS           PTCLDY    90  63  40 S10       29.84R HX  90
LIBERAL        CLOUDY    84  57  39 S10       29.92S
GOODLAND       CLEAR     77  51  40 E6        29.98S
$$



USA.gov is the U.S. government's official web portal to all federal, state and local government web resources and services.